SCP
-0 0 0 -0 0 0 0 0 0 0 0 0 0 0 0 0 0 0 0 0 0 0 0 0 0 0 0 0 0 0 0 0 -0 0 0 0 0 0 0 0 0 0 0 0
-0 -0 0 0 0 0 0 0 0 0 0 0 0 0 0 0 0 0 0 0 0 0 0 0 0 0 0 0 0 0 0 -0 -0 0 0 0 0 0 0 0 0 0 0 0
-0 -0 0 0 0 0 0 0 0 0 0 0 0 0 0 0 0 0 0 0 0 0 0 0 0 0 0 0 0 0 0 0 -0 0 0 0 0 0 0 0 0 0 0 0
-0 0 0 0 0 0 0 0 0 0 0 0 0 0 0 0 0 0 0 0 0 0 0 0 0 0 0 0 0 0 0 0 0 0 0 0 0 0 0 0 0 0 0 0
-0 0 0 0 0 0 0 0 0 0 0 0 0 0 0 0 0 0 0 0 0 0 0 0 0 0 0 0 0 0 0 0 0 0 0 0 0 0 0 0 0 0 0 0
-0 0 0 0 0 0 0 0 0 0 0 0 0 0 0 0 0 0 0 0 0 0 0 0 0 0 0 0 0 0 0 0 0 0 0 0 0 0 0 0 0 0 0 0
0 0 0 0 0 0 0 0 0 0 0 0 0 0 0 0 0 0 0 0 0 0 0 0 0 0 0 0 0 0 0 0 0 0 0 0 0 0 0 0 0 0 0 0
0 0 0 0 0 0 0 0 0 0 0 0 0 0 0 0 0 0 0 0 0 0 -0 -0 0 0 0 0 0 0 0 0 0 0 0 0 0 0 0 0 0 0 0 0
0 0 0 0 0 0 0 0 0 0 0 0 0 0 0 0 0 0 0 0 0 0 -0 0 0 0 0 0 0 0 0 0 0 0 0 0 0 0 0 0 0 0 0 0
0 0 0 0 0 0 0 0 0 0 0 0 0 0 0 0 0 0 0 0 0 0 0 0 0 0 0 0 0 0 0 0 0 0 0 0 0 0 0 0 0 0 0 0
0 0 0 0 0 0 0 0 0 0 0 0 0 0 0 0 0 0 0 0 0 0 0 0 0 0 0 0 0 0 0 0 0 0 0 0 0 0 0 0 0 0 0 0
0 0 0 0 0 0 0 0 0 -0 0 0 0 0 0 0 0 0 0 0 0 0 0 0 0 0 0 0 0 0 0 0 0 0 0 0 0 0 0 0 0 0 -0 0
0 0 0 0 0 0 0 0 0 0 0 0 0 0 0 0 0 0 0 0 0 0 0 0 0 0 0 0 0 0 0 0 0 0 0 0 0 0 0 -0 -0 0 -0 -0
0 0 0 0 0 0 0 0 0 0 0 0 0 0 0 0 0 0 0 0 0 0 0 0 0 0 0 0 0 0 0 0 0 0 0 0 0 0 0 0 0 0 -0 0
0 0 0 0 0 -0 0 0 0 0 0 0 0 0 0 0 0 0 0 0 0 0 0 0 0 0 0 0 0 0 0 0 0 0 0 0 0 0 0 0 0 0 0 0
0 0 0 0 -0 -0 0 0 0 0 0 0 0 0 0 0 0 0 0 0 0 0 0 0 0 0 0 -0 0 0 0 0 0 0 0 0 0 0 0 0 0 0 0 0
0 0 0 -0 0 0 0 0 0 0 0 0 0 0 0 0 0 0 0 0 0 0 0 0 0 0 0 0 0 0 0 0 0 0 0 0 0 0 0 0 0 0 0 0
0 0 -0 0 0 0 0 0 0 0 0 0 0 0 0 0 0 0 0 0 0 0 0 0 0 0 0 0 0 0 0 0 0 0 0 0 0 0 0 0 0 0 0 0
0 -0 0 0 0 0 0 0 0 0 0 0 0 0 0 0 0 0 0 0 0 0 0 0 0 0 0 0 0 0 0 0 0 0 0 0 0 0 0 0 0 0 0 0
-0 0 -0 0 -0 0 0 0 0 0 0 0 0 0 0 0 0 0 0 0 0 0 0 0 0 0 0 0 0 0 0 0 0 0 0 0 0 0 0 0 0 0 0 0
0 -0 0 -0 0 0 0 0 0 0 0 0 0 0 0 0 0 0 0 0 0 0 0 0 -0 0 0 0 0 0 0 0 0 0 0 0 0 0 0 0 0 0 0 0
-0 0 -0 0 0 0 0 0 0 0 0 0 0 0 0 0 0 0 0 0 0 0 0 0 0 -0 -0 0 0 0 0 0 0 0 0 0 0 0 0 0 0 0 0 0
-0 -0 -0 -0 0 0 0 0 0 0 0 0 0 0 0 0 0 0 0 0 0 0 -0 -0 0 -0 -0 0 0 0 0 0 0 0 0 0 0 0 0 0 0 0 0 0
-0 -0 0 0 0 0 0 0 0 0 0 0 0 0 0 0 0 0 0 0 0 0 -0 -0 0 0 -0 0 0 0 0 0 0 0 0 0 0 0 0 0 0 0 0 0
-0 0 0 0 0 0 0 0 0 0 0 0 0 0 0 0 0 0 0 0 0 -0 -0 0 0 0 0 0 0 0 0 0 0 0 0 0 0 0 0 0 0 0 0 0
-0 -0 0 0 0 0 0 0 0 0 0 0 0 0 0 0 0 0 0 0 0 0 0 0 0 0 0 0 0 0 0 0 0 0 0 0 0 0 0 -0 0 -0 -0 -0
Wind_Speed_500mb
12 15 18 23 20 20 16 20 24 18 12 9 16 18 15 14 13 18 16 14 16 20 20 19 25 21 21 24 28 34 34 37 34 29 31 30 29 28 26 25 23 18 20 23
12 21 13 16 15 16 15 18 16 11 8 8 14 13 13 11 17 16 14 16 14 15 18 16 17 17 19 22 27 30 31 34 34 35 32 32 30 24 20 21 24 23 26 23
19 23 12 11 12 6 7 14 12 5 15 9 19 22 20 17 16 13 11 11 11 13 14 14 14 15 19 23 26 30 32 32 33 43 33 31 27 26 24 29 28 29 28 25
18 12 9 7 5 14 5 6 11 21 20 9 26 10 30 29 20 18 15 12 10 11 8 11 11 14 18 21 25 28 29 33 33 34 34 33 33 33 33 30 30 33 30 29
16 11 5 13 14 9 12 2 10 19 22 11 28 13 21 23 21 19 17 11 10 7 6 11 17 18 16 19 25 25 27 29 29 34 35 34 35 35 32 33 35 30 30 24
19 10 15 8 11 16 15 5 11 17 16 24 16 8 18 5 9 4 24 15 13 9 8 11 17 18 17 22 23 26 28 31 34 39 33 35 37 34 32 33 33 33 31 29
15 11 11 17 9 16 12 15 21 18 14 12 12 12 22 29 22 19 21 21 16 12 13 15 17 21 20 18 22 28 31 36 39 38 33 35 37 35 33 33 32 35 30 27
9 16 9 16 16 15 9 16 15 27 22 23 10 8 11 17 15 15 20 20 17 5 10 16 17 20 22 26 29 30 34 41 39 34 36 35 34 31 31 30 32 32 29 25
4 9 10 14 18 18 18 12 13 19 25 18 6 23 16 9 8 9 11 10 4 7 10 16 19 15 20 25 30 34 37 37 38 37 33 31 36 31 31 35 36 29 31 27
6 5 3 6 11 15 17 11 15 11 14 17 4 12 12 19 7 6 10 5 6 6 10 12 12 22 24 26 34 32 31 33 34 35 31 31 36 40 45 42 40 34 31 28
9 8 11 10 17 21 17 14 10 7 9 12 15 9 8 14 11 4 6 2 6 4 9 9 15 23 28 34 34 28 32 35 33 33 34 40 43 42 35 30 29 29 25 18
11 7 6 12 11 11 15 14 12 11 6 7 10 7 10 11 12 9 9 12 11 11 10 15 22 30 36 35 29 31 31 31 31 30 40 37 32 34 34 30 27 23 11 9
5 6 11 19 14 11 11 15 9 4 8 12 17 10 11 7 12 14 12 12 12 12 17 24 30 35 32 29 32 32 31 28 27 34 33 26 35 42 28 32 27 21 17 6
5 5 8 13 13 4 7 12 16 12 10 10 11 14 9 9 12 9 10 9 13 13 20 27 32 29 31 32 29 30 24 27 33 29 24 29 38 32 30 28 32 19 16 11
6 8 9 13 11 8 7 10 16 16 14 12 17 14 16 10 10 10 8 9 10 17 25 28 29 27 26 28 27 26 27 29 25 23 28 36 40 36 28 25 31 28 15 13
3 5 4 9 6 5 6 7 7 10 14 13 11 10 8 6 5 8 5 9 13 21 25 26 26 25 26 26 24 24 25 23 23 24 30 36 33 35 31 26 30 32 29 21
2 7 7 7 3 7 10 14 12 12 9 15 19 15 2 2 2 3 5 9 17 21 22 23 23 22 22 23 21 22 22 21 21 27 28 31 39 42 35 31 29 28 28 22
10 2 4 7 6 2 12 7 12 15 10 12 4 9 7 8 5 5 7 12 16 18 17 19 20 19 18 19 20 18 19 21 26 25 28 31 33 38 36 33 34 35 36 35
6 4 5 6 3 5 9 3 13 20 9 12 14 4 4 3 9 9 9 11 12 13 13 15 16 15 15 17 13 17 20 23 25 27 27 27 26 26 30 29 30 28 30 31
11 4 6 2 4 4 12 5 13 15 9 11 13 8 4 6 16 22 8 8 10 11 10 15 15 15 14 13 17 18 21 22 26 26 23 24 29 33 36 36 45 43 34 34
4 4 9 5 2 8 11 11 12 10 11 9 12 10 2 8 11 9 6 7 9 8 10 12 14 13 13 16 19 20 21 24 23 18 19 21 25 32 34 34 39 53 53 56
8 8 7 3 3 6 13 9 13 9 6 5 7 6 5 9 8 7 5 8 5 7 10 10 10 10 10 16 17 20 21 20 20 18 18 23 32 31 23 30 35 32 28 27
3 9 7 12 10 6 7 11 12 7 6 5 6 8 11 9 8 5 8 6 3 4 7 8 8 4 10 15 20 20 19 20 21 23 30 31 29 24 24 31 34 33 32 31
7 3 4 7 9 7 6 11 10 9 10 10 11 10 8 11 8 8 4 3 0 2 7 7 9 11 10 15 20 20 20 21 28 27 27 29 26 25 23 24 35 40 35 31
12 4 5 7 12 0 8 6 10 13 13 12 10 9 13 11 9 6 4 3 3 7 7 9 9 11 12 15 15 19 23 26 23 24 27 29 23 23 27 35 37 31 40 37
25 17 10 14 14 14 8 14 14 12 10 9 10 14 12 10 9 7 8 5 8 7 10 7 8 9 12 21 19 21 22 24 25 23 24 22 24 25 25 21 23 32 37 36
Wind_Direction_500mb
200 227 62 48 42 64 87 104 112 112 106 96 129 145 152 155 147 118 110 104 116 97 83 73 59 65 63 56 49 38 30 20 18 3 356 346 337 336 331 330 337 334 328 321
177 78 82 100 100 105 105 119 113 115 179 222 157 141 145 178 129 136 133 123 109 107 97 78 67 59 58 51 45 35 23 13 9 360 355 352 344 339 335 330 328 322 323 321
92 116 129 125 120 134 54 18 168 55 160 162 176 182 179 161 151 147 135 156 127 117 106 84 62 47 36 32 25 17 10 4 359 356 350 352 350 343 334 331 329 321 320 316
93 127 158 189 68 318 63 4 189 166 199 324 203 332 187 165 177 193 190 169 148 125 85 90 69 35 23 19 10 5 1 355 351 353 350 347 344 337 331 331 323 330 320 311
101 133 101 65 24 329 51 199 216 201 243 263 184 256 99 162 187 189 202 161 138 96 69 58 36 13 8 5 0 357 356 351 351 348 343 342 334 330 325 324 325 324 324 326
107 99 43 50 56 30 130 175 233 219 252 251 94 281 74 73 292 140 154 130 114 91 61 39 23 359 356 352 349 348 347 345 341 339 335 334 333 327 326 325 332 325 325 317
134 85 96 13 271 152 241 300 311 289 283 333 80 276 41 45 38 29 132 120 97 82 18 323 334 347 340 345 348 348 338 335 333 332 329 328 324 326 325 328 328 326 321 308
238 162 21 15 23 330 338 329 322 311 320 324 151 356 66 34 41 60 86 110 111 3 283 296 316 336 340 341 342 343 335 331 333 329 322 324 324 327 326 328 330 328 327 322
228 133 109 47 33 348 353 331 337 285 267 261 63 106 105 107 68 69 110 116 131 261 278 307 324 337 347 333 341 337 335 336 335 333 332 331 334 334 330 326 324 323 329 331
72 203 330 51 288 85 12 1 309 288 296 314 93 64 36 11 81 148 148 155 248 279 314 330 346 342 350 344 336 337 343 339 337 340 344 344 341 333 321 314 314 313 315 329
337 302 109 227 24 7 347 359 330 284 317 316 329 71 36 6 20 104 104 145 35 2 6 10 346 358 341 335 334 344 341 340 338 343 346 342 339 339 339 331 326 325 311 327
29 352 336 48 82 31 50 13 348 320 27 348 280 72 32 23 41 46 53 74 58 48 30 5 349 340 336 335 344 338 339 341 344 350 346 351 355 360 355 350 342 340 340 350
6 61 298 157 181 126 37 19 2 314 267 26 326 77 48 42 41 35 57 74 58 40 13 355 347 344 348 358 349 346 341 346 355 354 359 355 359 1 6 3 1 5 334 332
58 51 353 19 45 344 64 32 24 355 349 347 48 339 88 39 14 48 68 59 48 25 1 354 348 355 1 353 355 356 357 357 1 8 3 360 352 3 15 15 19 25 18 53
30 84 81 77 77 68 76 35 30 42 20 9 5 337 45 23 35 64 74 64 23 5 358 354 354 4 13 359 2 6 9 8 10 18 9 359 15 20 25 24 25 38 53 31
26 111 138 100 102 94 79 59 15 29 9 350 330 81 61 99 89 69 71 26 13 0 356 357 2 15 6 1 5 14 12 19 17 14 6 10 28 32 34 23 23 36 39 46
64 135 252 82 159 268 195 26 1 343 6 348 346 14 99 189 27 89 45 14 3 0 0 2 20 10 6 4 6 13 20 23 20 14 13 22 30 40 42 41 42 47 53 50
131 132 327 70 240 235 69 31 354 329 31 5 329 5 355 6 110 105 33 8 1 1 5 8 13 10 11 11 16 33 29 25 20 29 32 38 35 40 41 41 40 54 56 63
57 312 94 326 330 85 148 90 351 340 14 33 0 357 19 136 194 123 70 35 17 17 18 18 12 4 6 18 43 39 31 35 32 28 24 30 30 22 35 36 46 59 57 54
104 98 30 340 308 20 59 36 337 302 166 34 349 346 301 249 281 102 57 25 32 32 31 19 23 23 47 56 51 32 21 19 24 21 36 27 33 51 64 58 57 59 59 58
143 16 7 63 13 115 50 345 309 285 31 16 356 359 6 319 30 91 84 65 57 52 27 30 39 68 68 58 34 16 10 17 18 20 35 43 57 79 73 56 65 69 66 74
2 333 38 268 301 97 8 275 342 61 65 32 19 33 83 104 118 114 86 90 61 40 27 46 61 82 45 38 16 8 7 18 32 46 54 66 85 91 67 61 53 54 60 50
130 28 10 5 34 54 31 72 97 80 96 53 78 87 113 118 124 95 123 109 74 25 47 54 59 49 18 15 5 21 28 57 64 76 78 81 86 79 66 52 48 48 44 46
102 53 26 253 78 54 106 122 111 92 93 89 106 109 114 118 119 121 123 126 136 72 64 65 54 68 36 16 36 46 62 74 93 85 81 83 76 73 57 45 57 47 63 48
24 251 14 146 84 284 133 146 136 118 106 102 99 109 120 115 103 112 100 101 127 98 67 79 73 72 34 47 54 81 80 92 90 82 75 74 75 71 63 60 57 53 47 48
357 8 350 40 15 349 42 158 148 133 119 104 113 124 116 112 111 102 73 97 114 113 104 93 87 76 55 93 90 95 86 87 90 92 73 78 77 53 52 52 41 35 32 32
Wind_Speed_850mb
12 15 18 23 20 20 16 20 24 18 12 9 16 18 15 14 13 18 16 14 16 20 20 19 25 21 21 24 28 34 34 37 34 29 31 30 29 28 26 25 23 18 20 23
12 21 13 16 15 16 15 18 16 11 8 8 14 13 13 11 17 16 14 16 14 15 18 16 17 17 19 22 27 30 31 34 34 35 32 32 30 24 20 21 24 23 26 23
19 23 12 11 12 6 7 14 12 5 15 9 19 22 20 17 16 13 11 11 11 13 14 14 14 15 19 23 26 30 32 32 33 43 33 31 27 26 24 29 28 29 28 25
18 12 9 7 5 14 5 6 11 21 20 9 26 10 30 29 20 18 15 12 10 11 8 11 11 14 18 21 25 28 29 33 33 34 34 33 33 33 33 30 30 33 30 29
16 11 5 13 14 9 12 2 10 19 22 11 28 13 21 23 21 19 17 11 10 7 6 11 17 18 16 19 25 25 27 29 29 34 35 34 35 35 32 33 35 30 30 24
19 10 15 8 11 16 15 5 11 17 16 24 16 8 18 5 9 4 24 15 13 9 8 11 17 18 17 22 23 26 28 31 34 39 33 35 37 34 32 33 33 33 31 29
15 11 11 17 9 16 12 15 21 18 14 12 12 12 22 29 22 19 21 21 16 12 13 15 17 21 20 18 22 28 31 36 39 38 33 35 37 35 33 33 32 35 30 27
9 16 9 16 16 15 9 16 15 27 22 23 10 8 11 17 15 15 20 20 17 5 10 16 17 20 22 26 29 30 34 41 39 34 36 35 34 31 31 30 32 32 29 25
4 9 10 14 18 18 18 12 13 19 25 18 6 23 16 9 8 9 11 10 4 7 10 16 19 15 20 25 30 34 37 37 38 37 33 31 36 31 31 35 36 29 31 27
6 5 3 6 11 15 17 11 15 11 14 17 4 12 12 19 7 6 10 5 6 6 10 12 12 22 24 26 34 32 31 33 34 35 31 31 36 40 45 42 40 34 31 28
9 8 11 10 17 21 17 14 10 7 9 12 15 9 8 14 11 4 6 2 6 4 9 9 15 23 28 34 34 28 32 35 33 33 34 40 43 42 35 30 29 29 25 18
11 7 6 12 11 11 15 14 12 11 6 7 10 7 10 11 12 9 9 12 11 11 10 15 22 30 36 35 29 31 31 31 31 30 40 37 32 34 34 30 27 23 11 9
5 6 11 19 14 11 11 15 9 4 8 12 17 10 11 7 12 14 12 12 12 12 17 24 30 35 32 29 32 32 31 28 27 34 33 26 35 42 28 32 27 21 17 6
5 5 8 13 13 4 7 12 16 12 10 10 11 14 9 9 12 9 10 9 13 13 20 27 32 29 31 32 29 30 24 27 33 29 24 29 38 32 30 28 32 19 16 11
6 8 9 13 11 8 7 10 16 16 14 12 17 14 16 10 10 10 8 9 10 17 25 28 29 27 26 28 27 26 27 29 25 23 28 36 40 36 28 25 31 28 15 13
3 5 4 9 6 5 6 7 7 10 14 13 11 10 8 6 5 8 5 9 13 21 25 26 26 25 26 26 24 24 25 23 23 24 30 36 33 35 31 26 30 32 29 21
2 7 7 7 3 7 10 14 12 12 9 15 19 15 2 2 2 3 5 9 17 21 22 23 23 22 22 23 21 22 22 21 21 27 28 31 39 42 35 31 29 28 28 22
10 2 4 7 6 2 12 7 12 15 10 12 4 9 7 8 5 5 7 12 16 18 17 19 20 19 18 19 20 18 19 21 26 25 28 31 33 38 36 33 34 35 36 35
6 4 5 6 3 5 9 3 13 20 9 12 14 4 4 3 9 9 9 11 12 13 13 15 16 15 15 17 13 17 20 23 25 27 27 27 26 26 30 29 30 28 30 31
11 4 6 2 4 4 12 5 13 15 9 11 13 8 4 6 16 22 8 8 10 11 10 15 15 15 14 13 17 18 21 22 26 26 23 24 29 33 36 36 45 43 34 34
4 4 9 5 2 8 11 11 12 10 11 9 12 10 2 8 11 9 6 7 9 8 10 12 14 13 13 16 19 20 21 24 23 18 19 21 25 32 34 34 39 53 53 56
8 8 7 3 3 6 13 9 13 9 6 5 7 6 5 9 8 7 5 8 5 7 10 10 10 10 10 16 17 20 21 20 20 18 18 23 32 31 23 30 35 32 28 27
3 9 7 12 10 6 7 11 12 7 6 5 6 8 11 9 8 5 8 6 3 4 7 8 8 4 10 15 20 20 19 20 21 23 30 31 29 24 24 31 34 33 32 31
7 3 4 7 9 7 6 11 10 9 10 10 11 10 8 11 8 8 4 3 0 2 7 7 9 11 10 15 20 20 20 21 28 27 27 29 26 25 23 24 35 40 35 31
12 4 5 7 12 0 8 6 10 13 13 12 10 9 13 11 9 6 4 3 3 7 7 9 9 11 12 15 15 19 23 26 23 24 27 29 23 23 27 35 37 31 40 37
25 17 10 14 14 14 8 14 14 12 10 9 10 14 12 10 9 7 8 5 8 7 10 7 8 9 12 21 19 21 22 24 25 23 24 22 24 25 25 21 23 32 37 36
Wind_Direction_850mb
200 227 62 48 42 64 87 104 112 112 106 96 129 145 152 155 147 118 110 104 116 97 83 73 59 65 63 56 49 38 30 20 18 3 356 346 337 336 331 330 337 334 328 321
177 78 82 100 100 105 105 119 113 115 179 222 157 141 145 178 129 136 133 123 109 107 97 78 67 59 58 51 45 35 23 13 9 360 355 352 344 339 335 330 328 322 323 321
92 116 129 125 120 134 54 18 168 55 160 162 176 182 179 161 151 147 135 156 127 117 106 84 62 47 36 32 25 17 10 4 359 356 350 352 350 343 334 331 329 321 320 316
93 127 158 189 68 318 63 4 189 166 199 324 203 332 187 165 177 193 190 169 148 125 85 90 69 35 23 19 10 5 1 355 351 353 350 347 344 337 331 331 323 330 320 311
101 133 101 65 24 329 51 199 216 201 243 263 184 256 99 162 187 189 202 161 138 96 69 58 36 13 8 5 0 357 356 351 351 348 343 342 334 330 325 324 325 324 324 326
107 99 43 50 56 30 130 175 233 219 252 251 94 281 74 73 292 140 154 130 114 91 61 39 23 359 356 352 349 348 347 345 341 339 335 334 333 327 326 325 332 325 325 317
134 85 96 13 271 152 241 300 311 289 283 333 80 276 41 45 38 29 132 120 97 82 18 323 334 347 340 345 348 348 338 335 333 332 329 328 324 326 325 328 328 326 321 308
238 162 21 15 23 330 338 329 322 311 320 324 151 356 66 34 41 60 86 110 111 3 283 296 316 336 340 341 342 343 335 331 333 329 322 324 324 327 326 328 330 328 327 322
228 133 109 47 33 348 353 331 337 285 267 261 63 106 105 107 68 69 110 116 131 261 278 307 324 337 347 333 341 337 335 336 335 333 332 331 334 334 330 326 324 323 329 331
72 203 330 51 288 85 12 1 309 288 296 314 93 64 36 11 81 148 148 155 248 279 314 330 346 342 350 344 336 337 343 339 337 340 344 344 341 333 321 314 314 313 315 329
337 302 109 227 24 7 347 359 330 284 317 316 329 71 36 6 20 104 104 145 35 2 6 10 346 358 341 335 334 344 341 340 338 343 346 342 339 339 339 331 326 325 311 327
29 352 336 48 82 31 50 13 348 320 27 348 280 72 32 23 41 46 53 74 58 48 30 5 349 340 336 335 344 338 339 341 344 350 346 351 355 360 355 350 342 340 340 350
6 61 298 157 181 126 37 19 2 314 267 26 326 77 48 42 41 35 57 74 58 40 13 355 347 344 348 358 349 346 341 346 355 354 359 355 359 1 6 3 1 5 334 332
58 51 353 19 45 344 64 32 24 355 349 347 48 339 88 39 14 48 68 59 48 25 1 354 348 355 1 353 355 356 357 357 1 8 3 360 352 3 15 15 19 25 18 53
30 84 81 77 77 68 76 35 30 42 20 9 5 337 45 23 35 64 74 64 23 5 358 354 354 4 13 359 2 6 9 8 10 18 9 359 15 20 25 24 25 38 53 31
26 111 138 100 102 94 79 59 15 29 9 350 330 81 61 99 89 69 71 26 13 0 356 357 2 15 6 1 5 14 12 19 17 14 6 10 28 32 34 23 23 36 39 46
64 135 252 82 159 268 195 26 1 343 6 348 346 14 99 189 27 89 45 14 3 0 0 2 20 10 6 4 6 13 20 23 20 14 13 22 30 40 42 41 42 47 53 50
131 132 327 70 240 235 69 31 354 329 31 5 329 5 355 6 110 105 33 8 1 1 5 8 13 10 11 11 16 33 29 25 20 29 32 38 35 40 41 41 40 54 56 63
57 312 94 326 330 85 148 90 351 340 14 33 0 357 19 136 194 123 70 35 17 17 18 18 12 4 6 18 43 39 31 35 32 28 24 30 30 22 35 36 46 59 57 54
104 98 30 340 308 20 59 36 337 302 166 34 349 346 301 249 281 102 57 25 32 32 31 19 23 23 47 56 51 32 21 19 24 21 36 27 33 51 64 58 57 59 59 58
143 16 7 63 13 115 50 345 309 285 31 16 356 359 6 319 30 91 84 65 57 52 27 30 39 68 68 58 34 16 10 17 18 20 35 43 57 79 73 56 65 69 66 74
2 333 38 268 301 97 8 275 342 61 65 32 19 33 83 104 118 114 86 90 61 40 27 46 61 82 45 38 16 8 7 18 32 46 54 66 85 91 67 61 53 54 60 50
130 28 10 5 34 54 31 72 97 80 96 53 78 87 113 118 124 95 123 109 74 25 47 54 59 49 18 15 5 21 28 57 64 76 78 81 86 79 66 52 48 48 44 46
102 53 26 253 78 54 106 122 111 92 93 89 106 109 114 118 119 121 123 126 136 72 64 65 54 68 36 16 36 46 62 74 93 85 81 83 76 73 57 45 57 47 63 48
24 251 14 146 84 284 133 146 136 118 106 102 99 109 120 115 103 112 100 101 127 98 67 79 73 72 34 47 54 81 80 92 90 82 75 74 75 71 63 60 57 53 47 48
357 8 350 40 15 349 42 158 148 133 119 104 113 124 116 112 111 102 73 97 114 113 104 93 87 76 55 93 90 95 86 87 90 92 73 78 77 53 52 52 41 35 32 32